CDT,Max TemperatureF,Mean TemperatureF,Min TemperatureF,Max Dew PointF,MeanDew PointF,Min DewpointF,Max Humidity, Mean Humidity, Min Humidity, Max Sea Level PressureIn, Mean Sea Level PressureIn, Min Sea Level PressureIn, Max VisibilityMiles, Mean VisibilityMiles, Min VisibilityMiles, Max Wind SpeedMPH, Mean Wind SpeedMPH, Max Gust SpeedMPH,PrecipitationIn, CloudCover, Events, WindDirDegrees
2013-8-1,75,66,58,60,51,42,99,62,31,30.02,29.98,29.92,10,10,7,13,5,20,0.00,3,,273
2013-8-2,78,68,59,63,54,44,99,64,30,29.98,29.90,29.86,10,10,2,10,5,20,0.11,3,Rain-Thunderstorm,284
2013-8-3,75,64,52,53,48,40,97,57,29,30.15,30.08,29.99,10,10,10,14,5,17,0.00,1,,321
2013-8-4,72,63,54,56,50,44,99,66,36,30.26,30.19,30.14,10,10,10,8,3,,0.00,1,,39
2013-8-5,72,63,54,62,56,52,94,79,56,30.14,30.00,29.89,10,10,7,15,6,21,0.00,6,Rain,156
2013-8-6,81,72,64,68,63,58,100,76,46,29.90,29.85,29.80,10,9,3,15,7,21,0.00,4,,204
2013-8-7,75,68,61,69,60,56,95,71,52,30.00,29.88,29.77,10,10,5,15,6,25,0.00,3,Thunderstorm,314
2013-8-8,75,66,58,62,52,44,100,63,37,30.08,30.04,30.00,10,9,3,8,5,,0.00,3,,78
2013-8-9,79,66,55,58,51,44,78,58,35,30.08,30.02,29.99,10,10,10,13,3,16,0.00,4,,275
2013-8-10,73,62,52,56,51,46,94,65,38,30.18,30.14,30.09,10,10,10,8,2,,0.00,5,,333
2013-8-11,70,62,54,64,59,53,100,88,72,30.16,30.11,30.05,10,9,2,10,2,,0.14,6,Rain,195
2013-8-12,78,69,61,66,58,51,100,72,39,30.04,29.98,29.92,10,7,0,14,2,21,0.03,5,Fog-Rain-Thunderstorm,330
2013-8-13,68,58,48,55,45,40,93,61,35,30.20,30.12,30.03,10,10,10,13,7,20,0.00,4,,3
2013-8-14,70,58,45,50,45,40,100,65,34,30.25,30.20,30.14,10,10,10,9,2,,0.00,2,,202
2013-8-15,76,64,52,53,48,40,89,59,28,30.17,30.14,30.10,10,10,10,10,3,,0.00,5,,225
2013-8-16,79,66,52,55,49,40,99,57,25,30.22,30.18,30.15,10,10,5,7,3,,0.00,2,,351
2013-8-17,79,66,53,56,49,40,92,55,25,30.28,30.23,30.19,10,10,7,8,3,,0.00,0,,140
2013-8-18,79,66,52,58,51,42,97,61,28,30.25,30.18,30.12,10,10,4,10,2,9,0.00,0,,164
2013-8-19,81,68,56,57,54,49,94,63,33,30.13,30.09,30.04,10,9,5,14,4,18,0.00,1,,192
2013-8-20,84,73,62,63,59,53,90,63,34,30.10,30.06,30.02,10,9,5,16,7,21,0.00,2,,181
2013-8-21,88,78,69,65,62,59,79,60,38,30.05,30.02,29.93,10,10,7,22,10,28,0.00,3,,192
2013-8-22,78,70,62,68,62,47,98,76,50,30.15,30.08,30.03,10,10,5,14,5,21,0.07,2,Rain-Thunderstorm,49
2013-8-23,80,67,54,58,51,46,85,59,30,30.22,30.19,30.15,10,10,10,10,4,,0.00,1,,108
2013-8-24,82,69,56,62,56,52,91,63,38,30.28,30.23,30.19,10,10,10,13,7,16,0.00,0,,147
2013-8-25,88,77,66,63,60,55,78,57,39,30.22,30.17,30.11,10,10,10,23,12,28,0.00,0,,193
2013-8-26,88,78,68,72,65,61,82,66,43,30.17,30.06,29.97,10,10,10,20,10,24,0.00,1,Thunderstorm,203
2013-8-27,92,82,72,72,65,43,86,62,19,29.99,29.90,29.82,10,10,10,22,9,26,0.00,1,Thunderstorm,209
2013-8-28,83,75,67,72,67,63,99,76,54,30.08,30.00,29.87,10,9,1,13,6,18,0.00,5,,19
2013-8-29,86,74,61,68,63,58,100,70,38,30.12,30.06,30.00,10,8,0,14,3,17,0.00,0,Fog,165
2013-8-30,90,78,66,72,65,46,96,73,23,30.00,29.89,29.81,10,9,4,15,8,20,0.00,3,Rain-Thunderstorm,150
2013-8-31,80,70,60,64,61,57,100,78,48,29.92,29.88,29.82,10,10,5,7,3,,0.00,3,,48